This is the latest recevied weather packets stored in our database for station/object YO2LDK-13. If no packets are shown the sender has not sent any weather packets the latest 10 day(s).
| Time | Temp. | Humidity | Pressure | Rain* | Wind** | Luminosity | Snow |
|---|---|---|---|---|---|---|---|
| 1777717820 | 19.44° C | 37% | 1011.9 hPa | 0 mm | - | 95 W/m² | - |
| 1777717519 | 20° C | 35% | 1011.9 hPa | 0 mm | - | 139 W/m² | - |
| 1777717219 | 19.44° C | 37% | 1011.9 hPa | 0 mm | - | 111 W/m² | - |
| 1777716920 | 21.11° C | 36% | 1011.9 hPa | 0 mm | - | 108 W/m² | - |
| 1777716619 | 20° C | 35% | 1012.2 hPa | 0 mm | - | 768 W/m² | - |
| 1777716320 | 19.44° C | 36% | 1011.9 hPa | 0 mm | - | 147 W/m² | - |
| 1777716020 | 20.56° C | 36% | 1012.2 hPa | 0 mm | - | 119 W/m² | - |
| 1777715720 | 21.11° C | 35% | 1012.2 hPa | 0 mm | - | 174 W/m² | - |
| 1777715419 | 20° C | 34% | 1012.2 hPa | 0 mm | - | 156 W/m² | - |
| 1777715120 | 18.89° C | 36% | 1012.2 hPa | 0 mm | - | 186 W/m² | - |
| 1777714820 | 18.33° C | 38% | 1012.5 hPa | 0 mm | - | 160 W/m² | - |
| 1777714519 | 18.33° C | 38% | 1012.5 hPa | 0 mm | - | 103 W/m² | - |
| 1777714220 | 18.89° C | 37% | 1012.5 hPa | 0 mm | - | 111 W/m² | - |
| 1777713919 | 19.44° C | 37% | 1012.5 hPa | 0 mm | - | 125 W/m² | - |
| 1777713619 | 20° C | 37% | 1012.5 hPa | 0 mm | - | 112 W/m² | - |
| 1777713319 | 20° C | 35% | 1012.5 hPa | 0 mm | - | 127 W/m² | - |
| 1777713019 | 19.44° C | 36% | 1012.5 hPa | 0 mm | - | 96 W/m² | - |
| 1777712720 | 19.44° C | 36% | 1012.9 hPa | 0 mm | - | 105 W/m² | - |
| 1777712420 | 18.89° C | 36% | 1012.5 hPa | 0 mm | - | 92 W/m² | - |
| 1777712119 | 18.89° C | 37% | 1012.9 hPa | 0 mm | - | 124 W/m² | - |
| 1777711819 | 18.33° C | 38% | 1012.9 hPa | 0 mm | - | 79 W/m² | - |
| 1777711519 | 18.33° C | 39% | 1012.9 hPa | 0 mm | - | 84 W/m² | - |
| 1777711219 | 17.78° C | 40% | 1012.9 hPa | 0 mm | - | 87 W/m² | - |
| 1777710919 | 18.33° C | 37% | 1012.9 hPa | 0 mm | - | 126 W/m² | - |
| 1777710619 | 18.33° C | 38% | 1012.9 hPa | 0 mm | - | 84 W/m² | - |
* Rain latest hour (hover to see other rain measurements)
** Current wind speed in m/s (hover to see current wind gust speed)